This is the latest recevied weather packets stored in our database for station/object WA1TYB-13. If no packets are shown the sender has not sent any weather packets the latest 10 day(s).
| Time | Temp. | Humidity | Pressure | Rain* | Wind** | Luminosity | Snow |
|---|---|---|---|---|---|---|---|
| 1777501500 | 15° C | 26% | 1022.5 hPa | 0 mm | - | 160 W/m² | - |
| 1777501197 | 13.89° C | 25% | 1022.5 hPa | 0 mm | - | 558 W/m² | - |
| 1777500895 | 13.33° C | 27% | 1022.8 hPa | 0 mm | - | 107 W/m² | - |
| 1777500592 | 14.44° C | 23% | 1023 hPa | 0 mm | - | 572 W/m² | - |
| 1777500288 | 14.44° C | 24% | 1022.7 hPa | 0 mm | - | 574 W/m² | - |
| 1777499985 | 15° C | 27% | 1023.2 hPa | 0 mm | - | 543 W/m² | - |
| 1777499682 | 15° C | 27% | 1023 hPa | 0 mm | - | 554 W/m² | - |
| 1777499378 | 14.44° C | 26% | 1023.1 hPa | 0 mm | - | 598 W/m² | - |
| 1777499077 | 14.44° C | 28% | 1023.1 hPa | 0 mm | - | 146 W/m² | - |
| 1777498773 | 14.44° C | 30% | 1022.7 hPa | 0 mm | - | 390 W/m² | - |
| 1777498469 | 15° C | 27% | 1023.1 hPa | 0 mm | - | 436 W/m² | - |
| 1777498166 | 15° C | 24% | 1023.3 hPa | 0 mm | - | 665 W/m² | - |
| 1777497864 | 14.44° C | 22% | 1022.8 hPa | 0 mm | - | 637 W/m² | - |
| 1777497560 | 14.44° C | 22% | 1023 hPa | 0 mm | - | 634 W/m² | - |
| 1777497256 | 15° C | 23% | 1023.2 hPa | 0 mm | - | 649 W/m² | - |
| 1777496952 | 15° C | 27% | 1023.1 hPa | 0 mm | - | 677 W/m² | - |
| 1777496650 | 15° C | 24% | 1023.1 hPa | 0 mm | - | 689 W/m² | - |
| 1777496346 | 14.44° C | 32% | 1023.2 hPa | 0 mm | - | 695 W/m² | - |
| 1777496042 | 15° C | 27% | 1023.1 hPa | 0 mm | - | 694 W/m² | - |
| 1777495738 | 14.44° C | 28% | 1023.3 hPa | 0 mm | - | 646 W/m² | - |
| 1777495435 | 15° C | 27% | 1023.4 hPa | 0 mm | - | 672 W/m² | - |
| 1777495131 | 14.44° C | 28% | 1023.2 hPa | 0 mm | - | 729 W/m² | - |
| 1777494828 | 14.44° C | 22% | 1023 hPa | 0 mm | - | 765 W/m² | - |
| 1777494525 | 13.89° C | 25% | 1023.1 hPa | 0 mm | - | 705 W/m² | - |
| 1777494223 | 12.78° C | 28% | 1023.1 hPa | 0 mm | - | 698 W/m² | - |
* Rain latest hour (hover to see other rain measurements)
** Current wind speed in m/s (hover to see current wind gust speed)